Weather in Latskoye

Russia / Yaroslavl Oblast     58°04′39″N   38°07′43″E
temp.,
°C
wind,
m/s
gust,
m/s
humid.,
%
clouds,
%
prec.,
mm/h
press.,
hPa
HPBL,
m
15 april, thu
thu1500:00+8n41093100 0.3 1019344
03:00+6n41094100 0.3 1020346
06:00+5nne51090100 0.0 1020359
09:00+6nne5983100 0.0 1022441
12:00+8nne6976100 0.0 1022633
15:00+8ne6107597 0.0 1023574
18:00+7ne51079100 0.0 1024545
21:00+6ne51378100 0.0 1025602
16 april, fri
fri1600:00+5ne51381100 0.0 1025569
03:00+4ene5128192 0.0 1025500
06:00+3ene4127998 0.0 1026448
09:00+6ene51063100 0.0 1027542
12:00+10ene5852100 0.0 1027844
15:00+12ene574391 0.0 10271096
18:00+10ene494454 0.0 1027901
21:00+6ne4126052 0.0 1028382
17 april, sat
sat1700:00+4ne4126940 0.0 1029338
03:00+3ne3117531 0.0 1030292
06:00+2ne3127834 0.0 1030301
09:00+7ene59535 0.0 1031619
12:00+11ene57395 0.0 10301216
15:00+12ne56375 0.0 10301378
18:00+10ne37490 0.0 1030431
21:00+5ne39680 0.0 1030162
18 april, sun
sun1800:00+4ne39760 0.0 1031169
03:00+2ne26801 0.0 1031112
06:00+2ne248060 0.0 103286
09:00+7ene355762 0.0 1032402
12:00+11ne344677 0.0 10321146
15:00+11nne4546100 0.0 10321158
18:00+9nne365899 0.0 1032245
21:00+7ene266691 0.0 1032109
19 april, mon
mon1900:00+6e2773100 0.0 1033142
03:00+5ese3981100 0.0 1034293
06:00+4ese3880100 0.0 1035283
09:00+7ese466299 0.0 1035520
12:00+10se454959 0.0 10341248
15:00+11se454294 0.0 10341624
18:00+10ese454390 0.0 10331139
21:00+5ese38585 0.0 1033190